User: anonymous
Location: Ottawa
(45.4170°N, 75.7000°W)
Time: 06:27:29
(UTC-04:00)
Language:

Aureole 3 Rocket - Orbit

View from above orbital plane
View from above orbital plane
View from above satellite
View from above satellite

Ground track
Ground track

The orbit data is extracted from the following two-line orbital elements,

1 12849U 81094B   14111.71393968  .00001236  00000-0  11773-3 0  8689
2 12849 082.4938 329.9404 0911621 269.7394 079.9400 13.47895593586508
Epoch (UTC): 21 April 2014 17:08:04
Eccentricity: 0.0911621
inclination: 82.4938°
perigee height: 400 km
apogee height: 1760 km
right ascension of ascending node: 329.9404°
argument of perigee: 269.7394°
revolutions per day: 13.47895593
mean anomaly at epoch: 79.9400°
orbit number at epoch: 58650

The dashed part of the orbit path shows where the satellite is in the earth's shadow,  

DLR